Theta_e
317 317 317 317 317 318 318 318 318 319 319 319 320 321 320 320 319 317 309 316 320 331 327 316 317 315 313 310 313 312 305 302 302 302 305 309 306 310 312 309 311 313 313 316 318
317 316 316 317 317 317 317 318 318 319 319 319 319 321 321 320 314 311 321 326 329 330 313 310 310 313 312 310 312 308 304 302 306 305 305 306 306 306 305 306 307 309 313 314 316
316 316 316 316 317 317 317 318 318 319 319 319 319 321 321 320 309 308 330 327 327 324 314 311 311 310 307 308 306 306 303 305 304 305 305 304 304 306 304 303 306 305 308 312 314
316 316 316 316 316 316 317 317 318 319 319 319 319 321 322 317 299 310 331 328 328 317 311 309 308 305 303 302 304 301 302 303 303 304 304 303 305 304 304 305 308 308 310 311 312
317 316 315 315 316 316 317 317 317 317 318 318 318 321 317 307 305 314 330 325 315 311 308 306 305 305 301 302 303 302 302 303 304 304 304 304 302 303 303 306 308 308 309 309 311
317 316 315 315 315 316 317 317 317 316 317 318 319 320 311 301 313 314 315 312 312 311 308 308 305 306 303 302 302 302 302 303 303 304 304 302 302 303 305 308 307 307 307 309 310
317 316 315 314 315 316 317 316 316 317 318 318 321 320 309 305 313 314 314 312 312 311 307 308 308 305 304 301 303 302 299 301 302 302 302 303 300 301 305 307 305 306 308 308 309
316 316 315 314 314 315 316 316 316 318 318 319 322 319 305 313 315 312 313 311 312 313 310 310 310 306 304 304 302 299 300 297 302 302 301 300 296 303 307 306 305 306 307 308 309
316 315 315 315 314 314 315 315 321 321 320 321 320 312 303 313 309 312 313 309 310 311 310 309 308 304 303 299 298 299 295 296 297 302 300 299 297 303 307 306 305 306 307 307 309
316 315 314 314 313 314 313 314 321 319 321 319 314 307 307 304 309 310 312 311 308 308 307 306 305 301 301 300 293 294 295 296 296 300 301 299 299 304 306 305 304 305 309 311 311
316 315 315 313 313 313 314 315 311 309 311 307 306 304 305 310 311 309 311 309 308 306 300 303 299 298 297 298 298 296 295 295 299 301 298 299 299 302 304 303 304 308 309 310 311
315 315 315 313 312 313 315 310 307 308 304 309 308 308 309 309 303 307 312 305 303 299 300 300 297 299 299 298 297 296 295 296 299 300 299 299 299 302 301 304 306 306 307 308 309
314 315 314 312 312 313 312 309 314 313 305 305 308 307 306 307 302 304 308 305 301 298 298 296 298 299 297 296 295 297 296 296 295 298 301 298 297 298 302 304 306 307 308 308 308
314 314 313 310 310 314 309 313 314 316 301 302 304 304 307 306 302 308 308 303 300 297 297 297 299 297 297 295 296 294 298 297 296 295 292 299 290 297 300 301 304 306 307 307 308
314 314 313 308 314 309 311 315 316 316 290 302 303 308 307 302 304 304 308 304 298 297 298 296 296 296 295 295 297 295 299 297 297 295 295 294 291 296 300 298 302 304 305 306 307
314 313 310 313 314 312 316 316 316 300 290 295 299 298 300 301 302 303 302 306 304 299 299 297 301 298 297 298 299 299 299 300 297 295 290 294 291 294 300 299 300 302 304 305 306
314 312 308 313 310 315 317 313 299 292 297 294 295 297 297 297 298 298 297 298 297 292 293 295 297 299 299 297 300 299 297 293 290 290 290 294 292 295 300 302 300 301 304 306 307
311 309 310 314 317 315 314 305 293 296 295 297 296 296 294 297 296 296 295 296 298 295 294 291 290 296 299 297 295 295 296 292 282 287 290 296 290 297 302 303 303 304 305 305 305
308 318 313 319 317 317 306 296 296 297 298 295 295 293 294 296 294 295 295 294 296 297 292 292 291 298 298 299 298 296 295 297 289 292 287 293 296 300 302 302 302 303 303 303 303
313 310 311 314 317 312 302 295 299 299 298 298 293 295 292 293 293 294 294 298 296 299 300 296 290 296 298 299 300 297 300 289 291 284 284 291 292 294 298 300 301 302 302 302 303
314 307 312 316 313 306 297 299 300 301 300 297 296 294 294 293 295 293 293 297 298 298 300 298 294 295 297 296 295 296 293 293 293 291 285 285 292 301 299 300 300 301 301 301 301
311 302 311 313 301 303 299 301 299 300 301 299 299 298 296 296 294 294 293 296 301 300 295 299 297 292 293 299 300 298 296 295 288 285 289 287 288 302 302 301 301 301 301 301 301
303 304 316 309 296 298 301 298 300 299 299 298 297 299 300 296 294 295 294 299 300 299 297 300 295 289 292 296 298 295 296 295 294 292 288 284 290 303 303 302 303 301 300 301 301
302 295 304 305 304 298 298 298 297 300 299 300 298 300 297 296 298 294 294 298 301 300 301 301 296 292 288 292 296 293 295 295 292 287 290 290 293 299 301 300 302 301 301 300 299
300 298 298 296 300 297 298 298 296 296 300 300 298 297 297 295 295 294 297 297 298 302 301 300 292 295 296 296 296 295 294 295 292 293 287 293 294 298 300 300 301 300 300 299 297
298 298 298 296 298 294 295 295 296 297 299 297 296 298 299 296 297 295 296 297 296 299 298 302 293 295 293 295 295 293 295 296 296 296 295 294 294 300 302 303 301 298 298 297 296
306 302 293 293 295 291 293 295 295 299 300 301 300 299 298 299 302 303 303 302 300 298 298 299 296 292 288 294 294 290 295 296 296 297 296 292 298 301 300 299 298 297 296 296 296
Wind_Speed
18 17 16 15 15 14 13 12 12 11 10 9 9 9 8 10 10 5 14 5 6 8 8 2 4 4 4 4 1 3 7 8 4 6 6 7 11 8 10 14 13 13 15 20 22
20 18 17 16 14 14 14 14 13 11 10 9 9 9 9 12 10 14 4 3 4 9 5 7 6 5 4 3 2 5 6 5 5 5 9 12 14 15 10 13 14 15 16 19 20
21 20 18 17 15 14 14 14 14 12 10 9 8 9 9 11 1 12 5 2 4 8 5 4 3 3 5 2 3 1 5 2 3 5 9 14 14 13 13 12 13 17 20 19 19
22 20 19 18 17 15 14 13 13 12 10 8 8 8 8 6 2 6 4 3 5 7 2 4 4 4 3 4 4 5 1 3 4 7 10 11 14 12 9 13 11 14 15 20 18
21 22 20 18 18 16 14 13 12 11 8 7 7 8 8 7 11 6 3 3 1 2 7 3 8 2 4 2 1 0 1 4 7 10 9 11 11 13 17 9 13 15 15 16 18
20 20 21 19 18 17 15 13 11 9 7 5 7 9 6 10 4 1 1 1 6 7 8 8 6 4 5 3 3 4 7 9 6 7 11 12 14 12 12 14 16 16 17 16 17
21 21 20 20 18 17 16 14 11 7 4 4 6 6 4 7 0 3 2 5 4 7 7 6 3 2 2 4 3 5 10 6 4 5 12 10 14 8 9 14 18 19 18 18 17
21 21 20 20 19 17 17 15 9 2 2 2 5 6 5 3 1 5 1 3 2 4 3 4 2 3 4 1 4 4 6 7 2 10 2 5 12 12 14 17 19 20 19 19 20
23 22 21 20 19 17 16 11 0 5 4 4 6 7 6 6 2 3 3 4 3 1 4 1 4 2 5 5 8 8 9 13 9 6 7 7 16 14 18 18 17 15 17 19 19
26 23 22 20 19 16 14 4 6 6 5 4 3 7 6 2 3 1 2 4 3 6 5 3 5 8 7 5 6 11 14 10 13 7 15 14 16 17 15 14 12 12 15 17 19
27 24 23 22 17 13 7 5 7 7 9 6 2 2 4 3 4 3 1 5 3 6 6 1 9 3 4 5 9 9 10 13 14 11 13 14 18 16 12 8 7 10 13 14 16
27 26 25 24 18 12 6 3 4 6 6 7 4 4 2 0 5 2 6 5 6 9 3 9 5 4 4 6 6 7 12 14 11 5 17 15 21 11 3 3 7 10 12 14 17
25 26 26 24 19 6 4 3 4 3 8 10 8 6 4 4 1 2 7 5 8 5 3 9 6 1 5 4 7 7 12 12 18 19 21 9 12 9 8 4 4 7 10 14 17
24 25 24 27 5 2 2 3 3 3 7 13 12 6 6 2 5 2 4 5 4 5 3 4 4 7 7 5 6 11 7 13 17 15 9 8 6 7 8 6 2 9 12 16 18
24 25 23 10 8 5 5 5 2 5 8 10 9 5 4 5 4 5 2 5 5 2 6 6 6 6 7 3 5 10 14 16 16 14 11 6 8 2 15 6 3 9 13 17 19
26 26 21 5 5 1 2 2 5 8 8 8 7 8 9 3 4 2 1 2 2 5 6 5 2 4 4 5 6 10 14 14 6 8 8 5 7 9 1 3 5 7 11 15 20
28 27 10 5 3 2 2 5 7 9 5 8 7 7 6 5 6 3 1 2 3 6 8 3 7 3 3 9 7 9 11 4 5 8 6 6 11 11 2 5 3 9 13 18 21
30 27 3 6 3 5 6 7 11 3 7 3 5 7 8 7 6 5 5 7 3 3 5 4 8 9 5 4 6 4 7 3 6 6 13 17 9 5 4 5 3 9 15 21 21
27 7 5 4 6 6 8 11 7 4 4 7 6 8 8 9 5 8 8 6 4 2 3 5 4 5 3 2 6 7 4 6 6 14 8 8 7 12 8 8 4 12 18 21 20
10 7 7 3 5 7 11 17 10 5 5 9 11 8 8 11 8 7 7 9 8 5 2 2 6 4 6 6 5 7 5 4 5 7 8 7 14 7 8 7 11 16 22 20 21
6 7 8 2 5 8 13 16 12 10 12 10 11 8 9 8 10 6 3 9 8 10 4 1 3 6 6 9 4 8 8 4 4 7 6 9 3 3 6 5 13 17 20 21 21
5 7 6 3 8 9 14 19 5 11 14 10 8 12 11 10 8 7 8 4 12 10 6 6 6 7 7 4 8 10 10 7 4 3 8 8 14 3 6 5 9 14 17 19 19
7 9 3 6 10 15 17 14 11 10 14 11 11 13 12 10 4 10 6 3 13 12 6 8 6 5 5 5 5 9 9 9 9 8 15 9 8 8 10 14 18 15 18 17 18
5 6 5 7 10 11 18 15 18 11 16 15 9 10 11 13 12 5 8 8 13 14 5 7 9 11 9 9 7 10 13 12 13 9 16 21 28 23 20 22 18 18 20 18 17
3 5 5 8 9 11 14 16 15 17 13 12 12 18 16 10 15 15 13 10 11 13 10 8 11 15 17 20 19 20 21 19 20 23 19 26 28 24 21 17 16 17 19 19 19
4 3 5 8 14 14 15 18 18 17 14 13 17 15 19 14 12 8 10 11 10 15 16 12 11 11 17 16 20 23 22 22 22 22 24 25 26 21 13 17 16 16 18 18 19
2 2 1 4 8 3 6 13 16 21 16 18 17 16 15 18 14 14 8 10 9 11 14 12 9 7 9 6 11 19 17 18 14 13 13 17 16 15 18 17 16 17 18 14 19
Wind_Direction
4 360 355 350 345 342 344 339 338 339 336 336 335 336 332 306 284 161 59 26 342 312 264 170 133 117 177 110 96 262 247 257 296 280 339 329 317 313 324 288 302 298 292 307 312
2 359 355 350 346 342 341 338 335 335 330 329 329 335 335 322 90 69 56 284 303 304 51 33 91 170 117 110 66 278 268 35 26 323 308 313 315 313 315 307 302 318 315 317 315
1 358 354 349 344 341 339 335 333 332 328 324 325 329 327 310 134 52 121 276 296 292 39 26 135 111 113 100 36 62 338 37 304 349 314 308 307 336 308 303 341 318 318 320 315
359 358 354 348 343 339 336 334 333 330 328 321 313 311 313 249 71 61 101 261 280 302 18 47 142 135 102 88 33 234 10 322 339 324 308 313 316 305 315 316 315 313 320 313 313
353 355 354 348 341 335 332 332 332 330 323 310 301 303 263 121 102 94 170 197 261 60 40 58 62 104 100 72 122 195 357 285 298 298 309 310 302 316 302 308 315 317 310 303 308
350 350 351 348 341 333 330 327 325 327 316 295 293 297 257 99 73 117 29 178 42 35 43 34 43 37 79 70 347 339 297 283 281 286 317 307 311 291 289 319 309 310 306 304 302
348 348 348 347 342 333 328 324 318 323 316 297 301 292 75 83 75 166 244 43 30 12 40 42 27 314 265 159 6 302 280 273 215 250 312 341 288 314 349 310 308 305 305 305 297
347 344 347 344 340 334 328 321 306 280 166 229 284 272 77 113 229 231 238 131 90 37 35 18 312 74 344 305 221 273 270 301 179 332 281 300 298 327 317 310 304 307 307 304 304
347 344 345 344 339 335 330 318 276 125 161 209 246 272 129 139 143 65 300 358 344 23 58 57 256 324 207 272 225 171 307 310 315 238 299 271 301 290 301 304 306 307 312 317 316
346 344 342 344 337 334 331 284 142 159 195 240 262 242 173 100 22 1 127 316 320 316 199 266 228 237 208 308 333 309 307 308 297 299 304 295 283 302 301 305 311 333 341 330 329
344 342 341 340 334 328 302 205 209 191 207 291 61 333 110 116 212 84 343 277 265 239 309 148 265 231 20 330 305 296 285 291 291 326 302 296 293 301 304 298 352 334 339 332 329
344 341 341 337 329 316 265 287 19 356 255 214 213 239 168 328 189 105 323 295 301 302 275 223 247 106 322 306 273 276 290 298 303 267 315 299 296 289 79 32 355 350 352 343 335
343 340 339 335 322 274 21 45 319 264 255 174 202 209 165 241 195 81 338 313 295 263 279 281 82 297 301 259 281 293 296 312 308 316 282 299 262 144 150 237 326 347 350 352 346
341 340 339 330 289 352 204 1 266 261 262 158 194 158 186 176 172 352 357 303 228 307 283 268 137 292 274 238 297 295 4 305 302 313 314 345 289 253 141 285 283 338 346 342 337
337 339 334 331 320 246 44 321 227 234 269 121 141 90 155 243 95 132 10 225 276 254 245 90 283 274 240 354 315 300 318 299 292 281 294 192 248 189 209 227 309 333 342 341 338
332 335 335 195 235 337 300 250 227 231 241 158 156 179 198 200 154 129 272 205 359 245 233 305 317 251 345 286 284 299 289 281 270 257 248 221 275 291 328 317 277 332 339 339 335
329 327 312 307 316 144 242 209 230 244 122 171 182 196 224 196 180 226 204 178 257 247 194 178 192 153 273 290 174 298 324 321 269 206 264 145 266 265 96 186 309 329 330 333 333
327 316 194 258 271 272 222 217 244 295 204 109 177 188 223 179 185 185 208 208 182 264 282 285 188 191 157 307 324 331 326 3 289 298 308 302 252 77 73 156 284 328 331 329 331
315 323 271 174 228 239 230 228 252 269 164 186 175 225 191 192 256 217 221 236 160 206 311 300 193 151 240 206 262 117 249 15 292 255 263 234 230 214 156 227 268 323 318 332 325
322 312 274 22 179 221 241 242 256 234 179 196 229 207 213 188 212 211 190 170 173 177 309 120 278 177 147 261 190 270 48 209 202 283 294 278 295 286 197 268 332 318 331 330 322
287 299 75 354 216 227 241 250 255 225 206 210 242 225 230 193 229 209 206 148 182 173 205 209 236 146 217 204 236 178 203 225 286 270 283 306 305 65 330 335 324 317 331 325 327
307 282 90 175 254 238 251 243 280 234 211 211 256 233 221 206 214 223 226 218 176 163 199 205 213 256 264 337 265 252 257 237 230 214 249 284 278 29 152 290 313 334 316 329 326
308 290 263 247 248 253 248 254 243 232 210 208 219 220 209 208 217 218 204 192 181 187 192 163 214 281 188 175 188 224 221 238 242 271 256 276 269 158 226 287 334 332 316 321 329
294 296 244 211 263 279 282 255 243 229 240 231 241 201 191 211 211 209 212 177 196 211 159 183 225 229 263 307 321 251 246 242 227 244 267 255 271 282 304 325 329 320 320 322 326
202 266 3 287 290 320 291 274 271 241 228 216 218 212 199 220 217 219 225 180 200 203 188 230 253 253 252 261 269 270 266 262 245 241 243 273 281 299 306 315 316 318 316 324 317
282 291 340 292 298 297 288 268 264 259 266 239 234 223 230 217 205 213 206 201 235 183 215 212 261 270 276 273 266 267 261 257 259 261 259 261 269 274 327 315 321 314 316 314 324
16 89 242 262 272 273 248 259 286 304 280 256 260 252 233 236 250 242 255 235 217 218 208 207 238 277 267 276 284 276 267 242 254 257 270 270 286 328 305 308 319 312 304 316 315